This demonstration page uses our WeatherBlox Daily Observations layout. Learn more.

Left ArrowRight Arrow

40.97296, -117.73568

Hourly Observations for March 12, 2016

Temp ( °F °C ) Dew Point ( °F °C ) Humidity (%) Winds ( mph kmh ) Pressure ( in mb ) Visibility ( mi km ) Precip ( " mm )
12:56 am 00:56 Clear 33 0.6 33 0.6 100 100 S 12 19 29.79 1009 10 16 0.00 0.00
1:56 am 01:56 Clear 34 1.1 33 0.6 97 97 S 9 15 29.81 1010 10 16 0.00 0.00
2:56 am 02:56 Partly Cloudy 34 1.1 29 -1.7 82 82 S 5 7 29.83 1010 10 16 0.00 0.00
3:56 am 03:56 Partly Cloudy 35 1.7 27 -2.8 72 72 SSW 8 13 29.87 1011 10 16 0.00 0.00
4:56 am 04:56 Clear 37 2.8 26 -3.3 65 65 S 9 15 29.87 1011 10 16 0.00 0.00
5:56 am 05:56 Clear 34 1.1 27 -2.8 76 76 S 9 15 29.90 1013 10 16 0.00 0.00
6:56 am 06:56 Sunny 34 1.1 29 -1.7 82 82 S 13 20 29.91 1013 10 16 0.00 0.00
7:56 am 07:56 Sunny 38 3.3 30 -1.1 73 73 SSE 15 24 29.92 1013 10 16 0.00 0.00
8:56 am 08:56 Mostly Cloudy 43 6.1 31 -0.6 63 63 SSE 18 30 29.92 1013 10 16 0.00 0.00
9:56 am 09:56 Sunny 45 7.2 30 -1.1 56 56 SSE 14 22 29.92 1013 10 16 0.00 0.00
10:56 am 10:56 Sunny 49 9.4 30 -1.1 48 48 S 16 26 29.91 1013 10 16 0.00 0.00
11:56 am 11:56 Sunny 50 10 31 -0.6 48 48 S 13 20 29.92 1013 10 16 0.00 0.00
12:56 pm 12:56 Mostly Sunny 52 11.1 30 -1.1 43 43 S 14 22 29.89 1012 10 16 0.00 0.00
1:56 pm 13:56 Mostly Sunny 53 11.7 31 -0.6 43 43 S 13 20 29.87 1012 10 16 0.00 0.00
2:56 pm 14:56 Cloudy 55 12.8 32 0 42 42 SSE 17 28 29.85 1011 10 16 0.00 0.00
3:56 pm 15:56 Cloudy 52 11.1 32 0 47 47 SSE 18 30 29.85 1011 10 16 0.00 0.00
4:56 pm 16:56 Cloudy with Light Rain 49 9.4 33 0.6 55 55 NNW 6 9 29.89 1012 10 16 0.00 0.03
5:56 pm 17:56 Cloudy 48 8.9 35 1.7 61 61 Calm 29.90 1013 10 16 0.00 0.03
6:56 pm 18:56 Cloudy with Light Rain 47 8.3 35 1.7 63 63 WSW 8 13 29.92 1013 10 16 0.00 0.03
7:56 pm 19:56 Cloudy 49 9.4 29 -1.7 46 46 WSW 16 26 29.91 1013 10 16 0.00 0.03
8:56 pm 20:56 Mostly Cloudy 48 8.9 28 -2.2 46 46 SW 22 35 29.91 1013 10 16 0.00 0.00
9:56 pm 21:56 Cloudy 47 8.3 27 -2.8 46 46 SW 20 31 29.91 1013 10 16 0.00 0.00
10:56 pm 22:56 Cloudy 46 7.8 29 -1.7 51 51 SW 7 11 29.90 1012 10 16 0.00 0.00
11:56 pm 23:56 Cloudy 46 7.8 29 -1.7 51 51 WSW 12 19 29.88 1012 10 16 0.00 0.00

Powered by AerisWeather